Location: Santa Cruz de Tenerife
(28.4500°N, 16.2330°W)
Time: 10:33:34
(UTC+01:00)

ISS - Visible Passes

Search period start: 13 April 2024 00:00
Search period end: 23 April 2024 00:00
Orbit: 413 x 419 km, 51.6° (Epoch: 13 April)

Date Brightness Start Highest point End Pass type
(mag) Time Alt. Az. Time Alt. Az. Time Alt. Az.
15 Apr -0.9 06:53:35 10° SSE 06:55:13 13° SE 06:56:51 10° E visible
17 Apr -3.0 06:51:18 10° SSW 06:54:31 50° SE 06:57:44 10° NE visible
18 Apr -1.8 06:04:52 19° SSE 06:05:59 23° SE 06:08:42 10° ENE visible
19 Apr -0.6 05:18:33 10° ESE 05:18:33 10° ESE 05:18:42 10° ESE visible
19 Apr -3.0 06:51:28 15° WSW 06:53:53 38° NW 06:57:01 10° NNE visible
20 Apr -4.0 06:05:02 78° W 06:05:11 82° NW 06:08:31 10° NE visible
21 Apr -1.1 05:18:27 20° ENE 05:18:27 20° ENE 05:19:42 10° ENE visible
21 Apr -1.4 06:51:42 10° WNW 06:53:23 13° NW 06:55:05 10° N visible
22 Apr -2.1 06:04:39 22° NW 06:04:39 22° NW 06:07:12 10° NNE visible
